,,PressureMeas_1m,,PRMeasQMR101_1,,RHStat155_1m_1,,SRMeasQMS101R_1m,,TAStat155_1m_1,,GenWind_1,,GenWind_1,
2019-08-19, 00:00:06,VALID,919.129,VALID,0.0,VALID,92.771,VALID,0.011,VALID,19.101,INVALID,360.0,VALID,0.0,
2019-08-19, 00:01:06,VALID,919.121,VALID,0.0,VALID,93.145,VALID,0.029,VALID,18.971,INVALID,360.0,VALID,0.0,
2019-08-19, 00:02:06,VALID,919.128,VALID,0.0,VALID,94.158,VALID,-0.001,VALID,18.962,INVALID,360.0,VALID,0.0,
2019-08-19, 00:03:06,VALID,919.121,VALID,0.0,VALID,94.706,VALID,0.017,VALID,19.001,VALID,346.0,VALID,0.0,
2019-08-19, 00:04:06,VALID,919.138,VALID,0.0,VALID,94.905,VALID,0.007,VALID,19.012,INVALID,360.0,VALID,0.0,
2019-08-19, 00:05:06,VALID,919.164,VALID,0.0,VALID,95.055,VALID,0.019,VALID,19.043,INVALID,360.0,VALID,0.0,
2019-08-19, 00:06:06,VALID,919.147,VALID,0.0,VALID,94.896,VALID,0.001,VALID,19.106,INVALID,360.0,VALID,0.0,
2019-08-19, 00:07:06,VALID,919.135,VALID,0.0,VALID,94.928,VALID,0.012,VALID,19.156,INVALID,360.0,VALID,0.0,
2019-08-19, 00:08:06,VALID,919.137,VALID,0.0,VALID,95.09,VALID,-0.008,VALID,19.198,INVALID,360.0,VALID,0.0,
2019-08-19, 00:09:06,VALID,919.135,VALID,0.0,VALID,95.013,VALID,0.01,VALID,19.222,INVALID,360.0,VALID,0.0,
2019-08-19, 00:10:06,VALID,919.145,VALID,0.0,VALID,95.048,VALID,0.028,VALID,19.235,INVALID,360.0,VALID,0.0,
2019-08-19, 00:11:06,VALID,919.132,VALID,0.0,VALID,94.906,VALID,-0.011,VALID,19.22,INVALID,360.0,VALID,0.0,
2019-08-19, 00:12:06,VALID,919.142,VALID,0.0,VALID,94.971,VALID,0.004,VALID,19.227,INVALID,360.0,VALID,0.0,
2019-08-19, 00:13:06,VALID,919.158,VALID,0.0,VALID,94.828,VALID,0.031,VALID,19.189,INVALID,360.0,VALID,0.0,
2019-08-19, 00:14:06,VALID,919.167,VALID,0.0,VALID,93.764,VALID,0.02,VALID,19.089,INVALID,360.0,VALID,0.0,
2019-08-19, 00:15:06,VALID,919.164,VALID,0.0,VALID,93.587,VALID,0.013,VALID,19.002,INVALID,360.0,VALID,0.0,
2019-08-19, 00:16:06,VALID,919.167,VALID,0.0,VALID,94.377,VALID,0.016,VALID,18.929,INVALID,360.0,VALID,0.0,
2019-08-19, 00:17:06,VALID,919.18,VALID,0.0,VALID,95.83,VALID,0.022,VALID,18.97,INVALID,360.0,VALID,0.0,
2019-08-19, 00:18:06,VALID,919.171,VALID,0.0,VALID,96.256,VALID,0.019,VALID,19.012,INVALID,360.0,VALID,0.0,
2019-08-19, 00:19:06,VALID,919.175,VALID,0.0,VALID,96.273,VALID,0.011,VALID,19.011,INVALID,360.0,VALID,0.0,
2019-08-19, 00:20:06,VALID,919.165,VALID,0.0,VALID,96.331,VALID,0.001,VALID,19.068,INVALID,360.0,VALID,0.0,
2019-08-19, 00:21:06,VALID,919.182,VALID,0.0,VALID,96.149,VALID,-0.003,VALID,19.092,INVALID,360.0,VALID,0.0,
2019-08-19, 00:22:06,VALID,919.18,VALID,0.0,VALID,95.877,VALID,0.012,VALID,19.088,INVALID,360.0,VALID,0.0,
2019-08-19, 00:23:06,VALID,919.185,VALID,0.0,VALID,95.366,VALID,0.024,VALID,19.163,INVALID,360.0,VALID,0.0,
2019-08-19, 00:24:06,VALID,919.183,VALID,0.0,VALID,94.442,VALID,0.008,VALID,19.233,INVALID,360.0,VALID,0.0,
2019-08-19, 00:25:06,VALID,919.192,VALID,0.0,VALID,89.721,VALID,0.007,VALID,18.956,INVALID,360.0,VALID,0.0,
2019-08-19, 00:26:06,VALID,919.194,VALID,0.0,VALID,91.396,VALID,0.013,VALID,18.624,INVALID,360.0,VALID,0.0,
2019-08-19, 00:27:06,VALID,919.181,VALID,0.0,VALID,93.766,VALID,0.009,VALID,18.427,INVALID,360.0,VALID,0.0,
2019-08-19, 00:28:06,VALID,919.185,VALID,0.0,VALID,94.744,VALID,0.026,VALID,18.27,INVALID,360.0,VALID,0.0,
2019-08-19, 00:29:06,VALID,919.154,VALID,0.0,VALID,96.031,VALID,0.001,VALID,18.252,INVALID,360.0,VALID,0.0,
2019-08-19, 00:30:06,VALID,919.158,VALID,0.0,VALID,96.861,VALID,0.005,VALID,18.243,INVALID,360.0,VALID,0.0,
2019-08-19, 00:31:06,VALID,919.141,VALID,0.0,VALID,96.919,VALID,0.016,VALID,18.18,INVALID,360.0,VALID,0.0,
2019-08-19, 00:32:06,VALID,919.141,VALID,0.0,VALID,96.68,VALID,0.012,VALID,18.104,INVALID,360.0,VALID,0.0,
2019-08-19, 00:33:06,VALID,919.13,VALID,0.0,VALID,96.319,VALID,0.031,VALID,18.012,INVALID,360.0,VALID,0.0,
2019-08-19, 00:34:06,VALID,919.121,VALID,0.0,VALID,96.392,VALID,0.015,VALID,17.978,INVALID,360.0,VALID,0.0,
2019-08-19, 00:35:06,VALID,919.125,VALID,0.0,VALID,97.029,VALID,0.028,VALID,18.0,INVALID,360.0,VALID,0.0,
2019-08-19, 00:36:06,VALID,919.134,VALID,0.0,VALID,97.162,VALID,0.035,VALID,17.997,INVALID,360.0,VALID,0.0,
2019-08-19, 00:37:06,VALID,919.137,VALID,0.0,VALID,97.832,VALID,0.032,VALID,18.085,INVALID,360.0,VALID,0.0,
2019-08-19, 00:38:06,VALID,919.156,VALID,0.0,VALID,97.78,VALID,0.039,VALID,18.088,INVALID,360.0,VALID,0.0,
2019-08-19, 00:39:06,VALID,919.146,VALID,0.0,VALID,97.526,VALID,0.028,VALID,17.992,INVALID,360.0,VALID,0.0,
2019-08-19, 00:40:06,VALID,919.121,VALID,0.0,VALID,96.617,VALID,0.007,VALID,17.799,INVALID,360.0,VALID,0.0,
2019-08-19, 00:41:06,VALID,919.126,VALID,0.0,VALID,96.956,VALID,0.018,VALID,17.857,INVALID,360.0,VALID,0.0,
2019-08-19, 00:42:06,VALID,919.131,VALID,0.0,VALID,97.515,VALID,0.024,VALID,17.855,INVALID,360.0,VALID,0.0,
2019-08-19, 00:43:06,VALID,919.13,VALID,0.0,VALID,97.405,VALID,0.046,VALID,17.797,INVALID,360.0,VALID,0.0,
2019-08-19, 00:44:06,VALID,919.107,VALID,0.0,VALID,97.089,VALID,0.046,VALID,17.704,INVALID,360.0,VALID,0.0,
2019-08-19, 00:45:06,VALID,919.122,VALID,0.0,VALID,97.343,VALID,0.042,VALID,17.76,INVALID,360.0,VALID,0.0,
2019-08-19, 00:46:06,VALID,919.113,VALID,0.0,VALID,97.831,VALID,0.037,VALID,17.869,INVALID,360.0,VALID,0.0,
2019-08-19, 00:47:06,VALID,919.107,VALID,0.0,VALID,97.977,VALID,0.05,VALID,17.923,INVALID,360.0,VALID,0.0,
2019-08-19, 00:48:06,VALID,919.124,VALID,0.0,VALID,97.593,VALID,0.041,VALID,17.794,INVALID,360.0,VALID,0.0,
2019-08-19, 00:49:06,VALID,919.125,VALID,0.0,VALID,96.631,VALID,0.001,VALID,17.622,VALID,63.0,VALID,0.0,
2019-08-19, 00:50:06,VALID,919.131,VALID,0.0,VALID,96.792,VALID,-0.007,VALID,17.625,VALID,63.0,VALID,0.0,
2019-08-19, 00:51:06,VALID,919.135,VALID,0.0,VALID,97.324,VALID,0.039,VALID,17.685,VALID,62.0,VALID,0.0,
2019-08-19, 00:52:06,VALID,919.137,VALID,0.0,VALID,97.808,VALID,0.023,VALID,17.748,VALID,62.0,VALID,0.0,
2019-08-19, 00:53:06,VALID,919.148,VALID,0.0,VALID,98.241,VALID,0.013,VALID,17.842,VALID,61.0,VALID,0.0,
2019-08-19, 00:54:06,VALID,919.176,VALID,0.0,VALID,98.33,VALID,0.032,VALID,17.897,INVALID,360.0,VALID,0.0,
2019-08-19, 00:55:06,VALID,919.195,VALID,0.0,VALID,98.034,VALID,0.038,VALID,17.854,INVALID,360.0,VALID,0.0,
2019-08-19, 00:56:06,VALID,919.203,VALID,0.0,VALID,97.402,VALID,0.031,VALID,17.703,INVALID,360.0,VALID,0.0,
2019-08-19, 00:57:06,VALID,919.185,VALID,0.0,VALID,98.152,VALID,0.032,VALID,17.921,INVALID,360.0,VALID,0.0,
2019-08-19, 00:58:06,VALID,919.159,VALID,0.0,VALID,98.992,VALID,0.008,VALID,18.241,INVALID,360.0,VALID,0.0,
2019-08-19, 00:59:06,VALID,919.134,VALID,0.0,VALID,99.128,VALID,0.02,VALID,18.439,INVALID,360.0,VALID,0.0,
2019-08-19, 01:00:06,VALID,919.11,VALID,0.0,VALID,99.053,VALID,0.023,VALID,18.501,INVALID,360.0,VALID,0.0,
2019-08-19, 01:01:06,VALID,919.114,VALID,0.0,VALID,98.292,VALID,0.013,VALID,18.172,INVALID,360.0,VALID,0.0,
2019-08-19, 01:02:06,VALID,919.122,VALID,0.0,VALID,97.67,VALID,0.026,VALID,18.04,INVALID,360.0,VALID,0.0,
2019-08-19, 01:03:06,VALID,919.115,VALID,0.0,VALID,97.8,VALID,0.01,VALID,18.088,INVALID,360.0,VALID,0.0,
2019-08-19, 01:04:06,VALID,919.108,VALID,0.0,VALID,97.842,VALID,0.015,VALID,18.083,INVALID,360.0,VALID,0.0,
2019-08-19, 01:05:06,VALID,919.078,VALID,0.0,VALID,98.395,VALID,0.025,VALID,18.195,INVALID,360.0,VALID,0.0,
2019-08-19, 01:06:06,VALID,919.045,VALID,0.0,VALID,98.65,VALID,0.031,VALID,18.282,INVALID,360.0,VALID,0.0,
2019-08-19, 01:07:06,VALID,919.038,VALID,0.0,VALID,98.745,VALID,0.017,VALID,18.325,INVALID,360.0,VALID,0.0,
2019-08-19, 01:08:06,VALID,919.061,VALID,0.0,VALID,98.739,VALID,0.014,VALID,18.254,INVALID,360.0,VALID,0.0,
2019-08-19, 01:09:06,VALID,919.071,VALID,0.0,VALID,97.497,VALID,0.016,VALID,17.877,INVALID,360.0,VALID,0.0,
2019-08-19, 01:10:06,VALID,919.066,VALID,0.0,VALID,96.713,VALID,0.012,VALID,17.732,INVALID,360.0,VALID,0.0,
2019-08-19, 01:11:06,VALID,919.032,VALID,0.0,VALID,97.287,VALID,0.018,VALID,17.757,INVALID,360.0,VALID,0.0,
2019-08-19, 01:12:06,VALID,919.007,VALID,0.0,VALID,98.182,VALID,0.009,VALID,17.912,INVALID,360.0,VALID,0.0,
2019-08-19, 01:13:06,VALID,918.975,VALID,0.0,VALID,98.907,VALID,0.014,VALID,18.191,INVALID,360.0,VALID,0.0,
2019-08-19, 01:14:06,VALID,918.917,VALID,0.0,VALID,99.093,VALID,0.016,VALID,18.339,INVALID,360.0,VALID,0.0,
2019-08-19, 01:15:06,VALID,918.902,VALID,0.0,VALID,99.033,VALID,0.032,VALID,18.344,INVALID,360.0,VALID,0.0,
2019-08-19, 01:16:06,VALID,918.904,VALID,0.0,VALID,98.839,VALID,0.032,VALID,18.269,INVALID,360.0,VALID,0.0,
2019-08-19, 01:17:06,VALID,918.899,VALID,0.0,VALID,98.65,VALID,0.037,VALID,18.222,INVALID,360.0,VALID,0.0,
2019-08-19, 01:18:06,VALID,918.913,VALID,0.0,VALID,98.418,VALID,0.031,VALID,18.16,INVALID,360.0,VALID,0.0,
2019-08-19, 01:19:06,VALID,918.901,VALID,0.0,VALID,98.177,VALID,0.025,VALID,18.096,INVALID,360.0,VALID,0.0,
2019-08-19, 01:20:06,VALID,918.856,VALID,0.0,VALID,98.114,VALID,0.036,VALID,18.07,INVALID,360.0,VALID,0.0,
2019-08-19, 01:21:06,VALID,918.854,VALID,0.0,VALID,98.081,VALID,0.02,VALID,18.082,INVALID,360.0,VALID,0.0,
2019-08-19, 01:22:06,VALID,918.838,VALID,0.0,VALID,97.86,VALID,0.039,VALID,18.054,INVALID,360.0,VALID,0.0,
2019-08-19, 01:23:06,VALID,918.837,VALID,0.0,VALID,97.394,VALID,0.029,VALID,17.95,INVALID,360.0,VALID,0.0,
2019-08-19, 01:24:06,VALID,918.82,VALID,0.0,VALID,97.489,VALID,0.005,VALID,17.947,INVALID,360.0,VALID,0.0,
2019-08-19, 01:25:06,VALID,918.808,VALID,0.0,VALID,97.755,VALID,0.029,VALID,17.929,INVALID,360.0,VALID,0.0,
2019-08-19, 01:26:06,VALID,918.78,VALID,0.0,VALID,97.939,VALID,0.028,VALID,17.918,INVALID,360.0,VALID,0.0,
2019-08-19, 01:27:06,VALID,918.771,VALID,0.0,VALID,97.985,VALID,0.033,VALID,17.897,INVALID,360.0,VALID,0.0,
2019-08-19, 01:28:06,VALID,918.737,VALID,0.0,VALID,98.234,VALID,0.02,VALID,17.991,INVALID,360.0,VALID,0.0,
2019-08-19, 01:29:06,VALID,918.718,VALID,0.0,VALID,98.44,VALID,0.015,VALID,18.074,INVALID,360.0,VALID,0.0,
2019-08-19, 01:30:06,VALID,918.717,VALID,0.0,VALID,98.637,VALID,0.017,VALID,18.147,INVALID,360.0,VALID,0.0,
2019-08-19, 01:31:06,VALID,918.713,VALID,0.0,VALID,98.577,VALID,0.033,VALID,18.159,INVALID,360.0,VALID,0.0,
2019-08-19, 01:32:06,VALID,918.717,VALID,0.0,VALID,98.066,VALID,0.054,VALID,18.011,INVALID,360.0,VALID,0.0,
2019-08-19, 01:33:06,VALID,918.722,VALID,0.0,VALID,98.24,VALID,0.016,VALID,18.089,INVALID,360.0,VALID,0.0,
2019-08-19, 01:34:06,VALID,918.697,VALID,0.0,VALID,97.993,VALID,0.011,VALID,18.014,INVALID,360.0,VALID,0.0,
2019-08-19, 01:35:06,VALID,918.661,VALID,0.0,VALID,97.93,VALID,0.029,VALID,18.014,INVALID,360.0,VALID,0.0,
2019-08-19, 01:36:06,VALID,918.694,VALID,0.0,VALID,98.382,VALID,0.013,VALID,18.161,INVALID,360.0,VALID,0.0,
2019-08-19, 01:37:06,VALID,918.743,VALID,0.0,VALID,98.336,VALID,0.037,VALID,18.126,INVALID,360.0,VALID,0.0,
2019-08-19, 01:38:06,VALID,918.758,VALID,0.0,VALID,97.577,VALID,0.015,VALID,17.949,INVALID,360.0,VALID,0.0,
2019-08-19, 01:39:06,VALID,918.765,VALID,0.0,VALID,98.087,VALID,0.013,VALID,18.088,INVALID,360.0,VALID,0.0,
2019-08-19, 01:40:06,VALID,918.755,VALID,0.0,VALID,98.391,VALID,0.003,VALID,18.154,INVALID,360.0,VALID,0.0,
2019-08-19, 01:41:06,VALID,918.749,VALID,0.0,VALID,98.102,VALID,0.001,VALID,18.099,INVALID,360.0,VALID,0.0,
2019-08-19, 01:42:06,VALID,918.768,VALID,0.0,VALID,97.826,VALID,0.019,VALID,18.048,INVALID,360.0,VALID,0.0,
2019-08-19, 01:43:06,VALID,918.759,VALID,0.0,VALID,97.494,VALID,0.013,VALID,17.932,INVALID,360.0,VALID,0.0,
2019-08-19, 01:44:06,VALID,918.769,VALID,0.0,VALID,97.325,VALID,0.01,VALID,17.938,INVALID,360.0,VALID,0.0,
2019-08-19, 01:45:06,VALID,918.766,VALID,0.0,VALID,97.735,VALID,0.013,VALID,18.006,INVALID,360.0,VALID,0.0,
2019-08-19, 01:46:06,VALID,918.762,VALID,0.0,VALID,97.818,VALID,0.025,VALID,18.04,INVALID,360.0,VALID,0.0,
2019-08-19, 01:47:06,VALID,918.8,VALID,0.0,VALID,97.733,VALID,0.011,VALID,18.031,INVALID,360.0,VALID,0.0,
2019-08-19, 01:48:06,VALID,918.819,VALID,0.0,VALID,97.229,VALID,0.024,VALID,17.927,INVALID,360.0,VALID,0.0,
2019-08-19, 01:49:06,VALID,918.813,VALID,0.0,VALID,97.352,VALID,0.0,VALID,17.969,INVALID,360.0,VALID,0.0,
2019-08-19, 01:50:06,VALID,918.818,VALID,0.0,VALID,97.629,VALID,-0.008,VALID,18.016,INVALID,360.0,VALID,0.0,
2019-08-19, 01:51:06,VALID,918.803,VALID,0.0,VALID,97.269,VALID,-0.022,VALID,18.011,INVALID,360.0,VALID,0.0,
2019-08-19, 01:52:06,VALID,918.807,VALID,0.0,VALID,97.468,VALID,-0.026,VALID,18.104,INVALID,360.0,VALID,0.0,
2019-08-19, 01:53:06,VALID,918.813,VALID,0.0,VALID,97.849,VALID,-0.021,VALID,18.249,INVALID,360.0,VALID,0.0,
2019-08-19, 01:54:06,VALID,918.818,VALID,0.0,VALID,97.299,VALID,-0.034,VALID,18.203,INVALID,360.0,VALID,0.0,
2019-08-19, 01:55:06,VALID,918.807,VALID,0.0,VALID,97.115,VALID,-0.026,VALID,18.182,INVALID,360.0,VALID,0.0,
2019-08-19, 01:56:06,VALID,918.827,VALID,0.0,VALID,96.846,VALID,-0.02,VALID,18.081,INVALID,360.0,VALID,0.0,
2019-08-19, 01:57:06,VALID,918.829,VALID,0.0,VALID,95.921,VALID,-0.02,VALID,17.947,INVALID,360.0,VALID,0.0,
2019-08-19, 01:58:06,VALID,918.852,VALID,0.0,VALID,96.651,VALID,-0.032,VALID,17.958,INVALID,360.0,VALID,0.0,
2019-08-19, 01:59:06,VALID,918.866,VALID,0.0,VALID,97.261,VALID,-0.033,VALID,17.981,INVALID,360.0,VALID,0.0,
2019-08-19, 02:00:06,VALID,918.89,VALID,0.0,VALID,97.88,VALID,-0.009,VALID,18.075,INVALID,360.0,VALID,0.0,
2019-08-19, 02:01:06,VALID,918.885,VALID,0.0,VALID,97.368,VALID,-0.03,VALID,17.895,INVALID,360.0,VALID,0.0,
2019-08-19, 02:02:06,VALID,918.891,VALID,0.0,VALID,96.023,VALID,-0.014,VALID,17.723,INVALID,360.0,VALID,0.0,
2019-08-19, 02:03:06,VALID,918.888,VALID,0.0,VALID,96.953,VALID,-0.024,VALID,17.774,INVALID,360.0,VALID,0.0,
2019-08-19, 02:04:06,VALID,918.874,VALID,0.0,VALID,97.42,VALID,0.008,VALID,17.806,INVALID,360.0,VALID,0.0,
2019-08-19, 02:05:06,VALID,918.873,VALID,0.0,VALID,97.747,VALID,0.005,VALID,17.857,INVALID,360.0,VALID,0.0,
2019-08-19, 02:06:06,VALID,918.865,VALID,0.0,VALID,98.182,VALID,-0.003,VALID,17.968,INVALID,360.0,VALID,0.0,
2019-08-19, 02:07:06,VALID,918.86,VALID,0.0,VALID,98.423,VALID,-0.015,VALID,18.022,INVALID,360.0,VALID,0.0,
2019-08-19, 02:08:06,VALID,918.846,VALID,0.0,VALID,97.755,VALID,0.002,VALID,17.813,INVALID,360.0,VALID,0.0,
2019-08-19, 02:09:06,VALID,918.841,VALID,0.0,VALID,97.339,VALID,-0.006,VALID,17.745,INVALID,360.0,VALID,0.0,
2019-08-19, 02:10:06,VALID,918.838,VALID,0.0,VALID,97.766,VALID,0.001,VALID,17.756,INVALID,360.0,VALID,0.0,
2019-08-19, 02:11:06,VALID,918.794,VALID,0.0,VALID,97.808,VALID,-0.017,VALID,17.737,INVALID,360.0,VALID,0.0,
2019-08-19, 02:12:06,VALID,918.818,VALID,0.0,VALID,98.762,VALID,-0.007,VALID,18.085,VALID,63.0,VALID,0.0,
2019-08-19, 02:13:06,VALID,918.809,VALID,0.0,VALID,98.937,VALID,0.016,VALID,18.216,INVALID,360.0,VALID,0.0,
2019-08-19, 02:14:06,VALID,918.811,VALID,0.0,VALID,98.633,VALID,-0.011,VALID,18.154,INVALID,360.0,VALID,0.0,
2019-08-19, 02:15:06,VALID,918.814,VALID,0.0,VALID,97.684,VALID,0.004,VALID,17.949,INVALID,360.0,VALID,0.0,
2019-08-19, 02:16:06,VALID,918.803,VALID,0.0,VALID,97.513,VALID,0.002,VALID,17.946,INVALID,360.0,VALID,0.0,
2019-08-19, 02:17:06,VALID,918.816,VALID,0.0,VALID,98.092,VALID,-0.01,VALID,18.055,INVALID,360.0,VALID,0.0,
2019-08-19, 02:18:06,VALID,918.811,VALID,0.0,VALID,97.969,VALID,-0.009,VALID,18.021,INVALID,360.0,VALID,0.0,
2019-08-19, 02:19:06,VALID,918.805,VALID,0.0,VALID,97.692,VALID,0.001,VALID,17.971,INVALID,360.0,VALID,0.0,
2019-08-19, 02:20:06,VALID,918.781,VALID,0.0,VALID,97.68,VALID,-0.019,VALID,17.945,INVALID,360.0,VALID,0.0,
2019-08-19, 02:21:06,VALID,918.78,VALID,0.0,VALID,97.521,VALID,0.003,VALID,17.848,INVALID,360.0,VALID,0.0,
2019-08-19, 02:22:06,VALID,918.772,VALID,0.0,VALID,97.789,VALID,0.015,VALID,17.867,INVALID,360.0,VALID,0.0,
2019-08-19, 02:23:06,VALID,918.757,VALID,0.0,VALID,98.112,VALID,0.018,VALID,17.887,INVALID,360.0,VALID,0.0,
2019-08-19, 02:24:06,VALID,918.741,VALID,0.0,VALID,97.966,VALID,0.0,VALID,17.803,INVALID,360.0,VALID,0.0,
2019-08-19, 02:25:06,VALID,918.747,VALID,0.0,VALID,97.784,VALID,-0.021,VALID,17.726,INVALID,360.0,VALID,0.0,
2019-08-19, 02:26:06,VALID,918.739,VALID,0.0,VALID,97.922,VALID,-0.01,VALID,17.719,INVALID,360.0,VALID,0.0,
2019-08-19, 02:27:06,VALID,918.766,VALID,0.0,VALID,97.99,VALID,-0.007,VALID,17.701,INVALID,360.0,VALID,0.0,
2019-08-19, 02:28:06,VALID,918.775,VALID,0.0,VALID,98.308,VALID,-0.002,VALID,17.781,INVALID,360.0,VALID,0.0,
2019-08-19, 02:29:06,VALID,918.791,VALID,0.0,VALID,98.335,VALID,0.009,VALID,17.774,INVALID,360.0,VALID,0.0,
2019-08-19, 02:30:06,VALID,918.808,VALID,0.0,VALID,98.364,VALID,0.011,VALID,17.746,INVALID,360.0,VALID,0.0,
2019-08-19, 02:31:06,VALID,918.803,VALID,0.0,VALID,98.423,VALID,-0.0,VALID,17.741,INVALID,360.0,VALID,0.0,
2019-08-19, 02:32:06,VALID,918.812,VALID,0.0,VALID,98.606,VALID,0.017,VALID,17.816,INVALID,360.0,VALID,0.0,
2019-08-19, 02:33:06,VALID,918.768,VALID,0.0,VALID,98.423,VALID,0.002,VALID,17.781,INVALID,360.0,VALID,0.0,
2019-08-19, 02:34:06,VALID,918.767,VALID,0.0,VALID,98.306,VALID,0.007,VALID,17.796,INVALID,360.0,VALID,0.0,
2019-08-19, 02:35:06,VALID,918.739,VALID,0.0,VALID,98.249,VALID,0.015,VALID,17.81,INVALID,360.0,VALID,0.0,
2019-08-19, 02:36:06,VALID,918.746,VALID,0.0,VALID,98.099,VALID,0.024,VALID,17.812,INVALID,360.0,VALID,0.0,
2019-08-19, 02:37:06,VALID,918.744,VALID,0.0,VALID,97.826,VALID,0.008,VALID,17.775,INVALID,360.0,VALID,0.0,
2019-08-19, 02:38:06,VALID,918.747,VALID,0.0,VALID,97.967,VALID,0.02,VALID,17.862,INVALID,360.0,VALID,0.0,
2019-08-19, 02:39:06,VALID,918.747,VALID,0.0,VALID,98.099,VALID,-0.001,VALID,17.912,INVALID,360.0,VALID,0.0,
2019-08-19, 02:40:06,VALID,918.732,VALID,0.0,VALID,97.808,VALID,0.012,VALID,17.872,INVALID,360.0,VALID,0.0,
2019-08-19, 02:41:06,VALID,918.713,VALID,0.0,VALID,97.744,VALID,0.022,VALID,17.884,INVALID,360.0,VALID,0.0,
2019-08-19, 02:42:06,VALID,918.667,VALID,0.0,VALID,97.542,VALID,0.024,VALID,17.875,INVALID,360.0,VALID,0.0,
2019-08-19, 02:43:06,VALID,918.667,VALID,0.0,VALID,97.656,VALID,0.01,VALID,17.934,INVALID,360.0,VALID,0.0,
2019-08-19, 02:44:06,VALID,918.647,VALID,0.0,VALID,97.563,VALID,0.005,VALID,17.974,INVALID,360.0,VALID,0.0,
2019-08-19, 02:45:06,VALID,918.637,VALID,0.0,VALID,97.239,VALID,0.014,VALID,17.97,INVALID,360.0,VALID,0.0,
2019-08-19, 02:46:06,VALID,918.623,VALID,0.0,VALID,97.199,VALID,0.017,VALID,17.992,INVALID,360.0,VALID,0.0,
2019-08-19, 02:47:06,VALID,918.602,VALID,0.0,VALID,97.18,VALID,0.026,VALID,18.02,INVALID,360.0,VALID,0.0,
2019-08-19, 02:48:06,VALID,918.57,VALID,0.0,VALID,97.302,VALID,0.022,VALID,18.048,INVALID,360.0,VALID,0.0,
2019-08-19, 02:49:06,VALID,918.552,VALID,0.0,VALID,97.149,VALID,0.007,VALID,18.033,INVALID,360.0,VALID,0.0,
2019-08-19, 02:50:06,VALID,918.521,VALID,0.0,VALID,96.943,VALID,0.012,VALID,17.982,INVALID,360.0,VALID,0.0,
2019-08-19, 02:51:06,VALID,918.508,VALID,0.0,VALID,97.003,VALID,0.008,VALID,17.956,INVALID,360.0,VALID,0.0,
2019-08-19, 02:52:06,VALID,918.496,VALID,0.0,VALID,97.067,VALID,-0.007,VALID,17.922,INVALID,360.0,VALID,0.0,
2019-08-19, 02:53:06,VALID,918.448,VALID,0.0,VALID,97.208,VALID,-0.011,VALID,17.916,INVALID,360.0,VALID,0.0,
2019-08-19, 02:54:06,VALID,918.46,VALID,0.0,VALID,97.194,VALID,0.005,VALID,17.902,INVALID,360.0,VALID,0.0,
2019-08-19, 02:55:06,VALID,918.452,VALID,0.0,VALID,96.908,VALID,0.001,VALID,17.861,INVALID,360.0,VALID,0.0,
2019-08-19, 02:56:06,VALID,918.447,VALID,0.0,VALID,97.075,VALID,-0.018,VALID,17.883,INVALID,360.0,VALID,0.0,
2019-08-19, 02:57:06,VALID,918.447,VALID,0.0,VALID,97.369,VALID,0.003,VALID,17.938,VALID,63.0,VALID,0.0,
2019-08-19, 02:58:06,VALID,918.457,VALID,0.0,VALID,97.809,VALID,-0.008,VALID,18.066,INVALID,360.0,VALID,0.0,
2019-08-19, 02:59:06,VALID,918.467,VALID,0.0,VALID,97.764,VALID,0.006,VALID,18.167,INVALID,360.0,VALID,0.0,
2019-08-19, 03:00:06,VALID,918.473,VALID,0.0,VALID,97.356,VALID,0.002,VALID,18.222,INVALID,360.0,VALID,0.0,
2019-08-19, 03:01:06,VALID,918.492,VALID,0.0,VALID,97.075,VALID,-0.017,VALID,18.305,INVALID,360.0,VALID,0.0,
2019-08-19, 03:02:06,VALID,918.506,VALID,0.0,VALID,96.752,VALID,-0.006,VALID,18.361,INVALID,360.0,VALID,0.0,
2019-08-19, 03:03:06,VALID,918.527,VALID,0.0,VALID,96.267,VALID,-0.006,VALID,18.366,INVALID,360.0,VALID,0.0,
2019-08-19, 03:04:06,VALID,918.526,VALID,0.0,VALID,96.027,VALID,0.001,VALID,18.345,INVALID,360.0,VALID,0.0,
2019-08-19, 03:05:06,VALID,918.544,VALID,0.0,VALID,95.829,VALID,0.01,VALID,18.274,INVALID,360.0,VALID,0.0,
2019-08-19, 03:06:06,VALID,918.558,VALID,0.0,VALID,95.972,VALID,0.008,VALID,18.221,INVALID,360.0,VALID,0.0,
2019-08-19, 03:07:06,VALID,918.554,VALID,0.0,VALID,96.234,VALID,0.019,VALID,18.173,INVALID,360.0,VALID,0.0,
2019-08-19, 03:08:06,VALID,918.551,VALID,0.0,VALID,96.455,VALID,0.0,VALID,18.145,INVALID,360.0,VALID,0.0,
2019-08-19, 03:09:06,VALID,918.553,VALID,0.0,VALID,96.679,VALID,0.022,VALID,18.135,INVALID,360.0,VALID,0.0,
2019-08-19, 03:10:06,VALID,918.536,VALID,0.0,VALID,96.828,VALID,0.018,VALID,18.143,INVALID,360.0,VALID,0.0,
2019-08-19, 03:11:06,VALID,918.522,VALID,0.0,VALID,96.857,VALID,0.015,VALID,18.145,INVALID,360.0,VALID,0.0,
2019-08-19, 03:12:06,VALID,918.505,VALID,0.0,VALID,96.791,VALID,-0.004,VALID,18.147,INVALID,360.0,VALID,0.0,
2019-08-19, 03:13:06,VALID,918.503,VALID,0.0,VALID,96.818,VALID,0.0,VALID,18.153,INVALID,360.0,VALID,0.0,
2019-08-19, 03:14:06,VALID,918.494,VALID,0.0,VALID,96.71,VALID,0.008,VALID,18.141,INVALID,360.0,VALID,0.0,
2019-08-19, 03:15:06,VALID,918.461,VALID,0.0,VALID,96.129,VALID,0.015,VALID,18.044,INVALID,360.0,VALID,0.0,
2019-08-19, 03:16:06,VALID,918.446,VALID,0.0,VALID,96.101,VALID,0.014,VALID,17.959,INVALID,360.0,VALID,0.0,
2019-08-19, 03:17:06,VALID,918.444,VALID,0.0,VALID,96.64,VALID,0.017,VALID,17.919,INVALID,360.0,VALID,0.0,
2019-08-19, 03:18:06,VALID,918.422,VALID,0.0,VALID,97.105,VALID,0.013,VALID,17.915,INVALID,360.0,VALID,0.0,
2019-08-19, 03:19:06,VALID,918.375,VALID,0.0,VALID,97.492,VALID,0.006,VALID,17.944,INVALID,360.0,VALID,0.0,
2019-08-19, 03:20:06,VALID,918.363,VALID,0.0,VALID,97.626,VALID,0.017,VALID,17.976,INVALID,360.0,VALID,0.0,
2019-08-19, 03:21:06,VALID,918.348,VALID,0.0,VALID,97.876,VALID,0.007,VALID,18.051,INVALID,360.0,VALID,0.0,
2019-08-19, 03:22:06,VALID,918.313,VALID,0.0,VALID,97.832,VALID,0.004,VALID,18.087,INVALID,360.0,VALID,0.0,
2019-08-19, 03:23:06,VALID,918.291,VALID,0.0,VALID,97.821,VALID,-0.003,VALID,18.113,INVALID,360.0,VALID,0.0,
2019-08-19, 03:24:06,VALID,918.292,VALID,0.0,VALID,97.814,VALID,-0.008,VALID,18.125,INVALID,360.0,VALID,0.0,
2019-08-19, 03:25:06,VALID,918.269,VALID,0.0,VALID,97.754,VALID,-0.004,VALID,18.125,INVALID,360.0,VALID,0.0,
2019-08-19, 03:26:06,VALID,918.252,VALID,0.0,VALID,97.752,VALID,0.005,VALID,18.161,INVALID,360.0,VALID,0.0,
2019-08-19, 03:27:06,VALID,918.227,VALID,0.0,VALID,97.648,VALID,-0.001,VALID,18.17,INVALID,360.0,VALID,0.0,
2019-08-19, 03:28:06,VALID,918.205,VALID,0.0,VALID,97.67,VALID,0.011,VALID,18.204,INVALID,360.0,VALID,0.0,
2019-08-19, 03:29:06,VALID,918.179,VALID,0.0,VALID,97.629,VALID,-0.008,VALID,18.251,INVALID,360.0,VALID,0.0,
2019-08-19, 03:30:06,VALID,918.179,VALID,0.0,VALID,97.451,VALID,0.007,VALID,18.303,INVALID,360.0,VALID,0.0,
2019-08-19, 03:31:06,VALID,918.163,VALID,0.0,VALID,97.096,VALID,0.015,VALID,18.335,INVALID,360.0,VALID,0.0,
2019-08-19, 03:32:06,VALID,918.168,VALID,0.0,VALID,96.977,VALID,-0.011,VALID,18.414,INVALID,360.0,VALID,0.0,
2019-08-19, 03:33:06,VALID,918.183,VALID,0.0,VALID,96.556,VALID,0.02,VALID,18.449,INVALID,360.0,VALID,0.0,
2019-08-19, 03:34:06,VALID,918.184,VALID,0.0,VALID,96.235,VALID,0.007,VALID,18.437,INVALID,360.0,VALID,0.0,
2019-08-19, 03:35:06,VALID,918.197,VALID,0.0,VALID,96.317,VALID,0.003,VALID,18.468,INVALID,360.0,VALID,0.0,
2019-08-19, 03:36:06,VALID,918.226,VALID,0.0,VALID,96.213,VALID,0.012,VALID,18.512,INVALID,360.0,VALID,0.0,
2019-08-19, 03:37:06,VALID,918.196,VALID,0.0,VALID,95.875,VALID,0.014,VALID,18.547,INVALID,360.0,VALID,0.0,
2019-08-19, 03:38:06,VALID,918.187,VALID,0.0,VALID,95.851,VALID,0.007,VALID,18.587,INVALID,360.0,VALID,0.0,